Weather History for KCMI - July, 2012

Change the Weather History Date:

Tuesday, July 10, 2012

  Actual Average Record
Temperature  
Mean Temperature 80 °F 74 °F  
Max Temperature 90 °F 85 °F 90 °F (2001)
Min Temperature 69 °F 64 °F 55 °F (2005)
Degree Days  
Heating Degree Days 0 0  
Month to date heating degree days 0 0  
Since 1 June heating degree days 14 17  
Since 1 July heating degree days 0 0  
Cooling Degree Days 15 10  
Month to date cooling degree days 177 99  
Year to date cooling degree days 631 414  
Since 1 June cooling degree days 405 322  
Growing Degree Days 29 (Base 50)    
Moisture  
Dew Point 58 °F    
Average Humidity 56    
Maximum Humidity 78    
Minimum Humidity 34    
Precipitation  
Precipitation 0.00 in 0.16 in 1.07 in (2004)
Month to date precipitation 0.00 1.26  
Year to date precipitation 12.26 20.59  
Sea Level Pressure  
Sea Level Pressure 30.04 in    
Wind  
Wind Speed 11 mph (NE)    
Max Wind Speed 18 mph    
Max Gust Speed 26 mph    
Visibility 10 miles    
Events      
T = Trace of Precipitation, MM = Missing Value Source: NWS Daily Summary

Daily Weather History Graph

Daily Weather History Graph

Search for Another Location

Airport or City:

Trip Planner

Search our weather history database for the weather conditions in past years. The results will help you decide how hot, cold, wet, or windy it might be!

Date:

Astronomy

Jul. 10, 2012 Rise Set
Actual Time 5:33 AM CDT 8:23 PM CDT
Civil Twilight 5:01 AM CDT 8:55 PM CDT
Nautical Twilight 4:20 AM CDT 9:35 PM CDT
Astronomical Twilight 3:34 AM CDT 10:22 PM CDT
Moon No Moon Rise 12:59 PM CDT (7/10)
Length of Visible Light 15h 54m
Length of Day
14h 49m
Waning Gibbous, 54% of the Moon is Illuminated
Jul 10
Waning Gibbous
Jul 10
Last Quarter
Jul 18
New
Jul 26
First Quarter
Aug 1
Full

Hourly Weather History & Observations

Time (CDT) Temp. Heat Index Dew Point Humidity Pressure Visibility Wind Dir Wind Speed Gust Speed Precip Events Conditions
12:53 AM 71.1 °F - 63.0 °F 75% 30.02 in 10.0 mi ENE 8.1 mph - N/A   Clear
1:53 AM 69.1 °F - 62.1 °F 78% 30.02 in 10.0 mi NE 6.9 mph - N/A   Clear
2:53 AM 70.0 °F - 61.0 °F 73% 30.03 in 10.0 mi NE 8.1 mph - N/A   Clear
3:53 AM 70.0 °F - 60.1 °F 71% 30.03 in 10.0 mi NE 9.2 mph - N/A   Clear
4:53 AM 69.8 °F - 57.2 °F 64% 30.05 in 10.0 mi NE 10.4 mph - N/A   Clear
5:53 AM 70.0 °F - 55.9 °F 61% 30.04 in 10.0 mi NE 10.4 mph - N/A   Clear
6:53 AM 71.1 °F - 55.9 °F 59% 30.06 in 10.0 mi ENE 10.4 mph - N/A   Clear
7:53 AM 73.9 °F - 57.0 °F 55% 30.06 in 10.0 mi ENE 11.5 mph - N/A   Clear
8:53 AM 77.0 °F - 61.0 °F 58% 30.07 in 10.0 mi ENE 10.4 mph - N/A   Clear
9:53 AM 80.1 °F 80.9 °F 60.1 °F 50% 30.06 in 10.0 mi East 12.7 mph - N/A   Clear
10:53 AM 82.9 °F 83.3 °F 61.0 °F 47% 30.07 in 10.0 mi ENE 10.4 mph 17.3 mph N/A   Clear
11:53 AM 86.0 °F 85.4 °F 59.0 °F 40% 30.07 in 10.0 mi NE 11.5 mph - N/A   Clear
12:53 PM 88.0 °F 87.6 °F 60.1 °F 39% 30.06 in 10.0 mi ENE 8.1 mph - N/A   Clear
1:53 PM 88.0 °F 87.1 °F 59.0 °F 37% 30.05 in 10.0 mi East 8.1 mph - N/A   Partly Cloudy
2:53 PM 89.1 °F 88.2 °F 59.0 °F 36% 30.03 in 10.0 mi ENE 8.1 mph - N/A   Partly Cloudy
3:53 PM 89.1 °F 88.0 °F 57.9 °F 35% 30.02 in 10.0 mi East 9.2 mph - N/A   Partly Cloudy
4:53 PM 89.1 °F 87.7 °F 57.0 °F 34% 30.02 in 10.0 mi ENE 8.1 mph - N/A   Clear
5:53 PM 87.1 °F 86.1 °F 57.9 °F 37% 30.01 in 10.0 mi NNE 11.5 mph - N/A   Clear
6:53 PM 84.9 °F 83.3 °F 54.0 °F 34% 30.02 in 10.0 mi NNE 15.0 mph 21.9 mph N/A   Clear
7:53 PM 81.0 °F 81.0 °F 57.0 °F 44% 30.03 in 10.0 mi NNE 17.3 mph 26.5 mph N/A   Mostly Cloudy
8:53 PM 77.0 °F - 57.0 °F 50% 30.04 in 10.0 mi NNE 11.5 mph - N/A   Mostly Cloudy
9:53 PM 73.9 °F - 55.0 °F 52% 30.06 in 10.0 mi NE 13.8 mph 21.9 mph N/A   Clear
10:53 PM 73.0 °F - 55.0 °F 53% 30.07 in 10.0 mi NE 13.8 mph - N/A   Overcast
11:53 PM 71.1 °F - 55.9 °F 59% 30.08 in 10.0 mi NE 11.5 mph - N/A   Clear